Location: Newark
(52.3735°N, 16.9806°E)
Time: 20:15:39
(UTC+00:00)

N. Korean satellite - Pass Details

Date: 28 September 2021
Orbit: 450 x 495 km, 97.3° (Epoch: 25 October)

Event Time Altitude Azimuth Distance (km) Brightness Sun altitude
Rises 03:39:05 0° 21° (NNE) 2,535 10.7 -11.3°
Reaches altitude 10° 03:41:19 10° 33° (NNE) 1,660 9.9 -11.0°
Maximum altitude 03:44:30 30° 96° (E) 900 8.8 -10.5°
Drops below altitude 10° 03:47:41 10° 159° (SSE) 1,669 9.4 -10.0°
Sets 03:49:56 0° 170° (S) 2,551 10.2 -9.7°
